TimeCST,TemperatureF,Dew PointF,Humidity,Sea Level PressureIn,VisibilityMPH,Wind Direction,Wind SpeedMPH,Gust SpeedMPH,PrecipitationIn,Events,Conditions,WindDirDegrees,DateUTC
12:53 AM,21.9,10.0,60,30.24,10.0,Calm,Calm,-,N/A,,Clear,0,2012-12-29 06:53:00
1:53 AM,21.9,10.0,60,30.23,10.0,NNW,3.5,-,N/A,,Clear,330,2012-12-29 07:53:00
2:53 AM,21.0,10.0,63,30.26,10.0,Variable,3.5,-,N/A,,Clear,0,2012-12-29 08:53:00
3:53 AM,19.9,10.0,65,30.29,10.0,WNW,5.8,-,N/A,,Clear,300,2012-12-29 09:53:00
4:53 AM,19.9,10.0,65,30.30,10.0,NW,9.2,-,N/A,,Clear,320,2012-12-29 10:53:00
6:53 AM,17.1,9.0,71,30.38,10.0,SSW,4.6,-,N/A,,Clear,210,2012-12-29 12:53:00
7:53 AM,16.0,9.0,74,30.40,8.0,Variable,3.5,-,N/A,,Clear,0,2012-12-29 13:53:00
8:53 AM,19.9,10.9,68,30.42,9.0,Calm,Calm,-,N/A,,Clear,0,2012-12-29 14:53:00
9:53 AM,25.0,12.0,58,30.42,10.0,North,6.9,-,N/A,,Clear,360,2012-12-29 15:53:00
10:53 AM,28.0,12.9,53,30.45,10.0,Variable,5.8,-,N/A,,Clear,0,2012-12-29 16:53:00
11:53 AM,34.0,12.9,42,30.42,10.0,Variable,5.8,-,N/A,,Clear,0,2012-12-29 17:53:00
12:53 PM,35.1,14.0,42,30.40,10.0,SW,5.8,-,N/A,,Clear,220,2012-12-29 18:53:00
1:53 PM,39.9,15.1,36,30.38,10.0,WNW,8.1,-,N/A,,Clear,290,2012-12-29 19:53:00
2:53 PM,41.0,14.0,33,30.39,10.0,WNW,4.6,-,N/A,,Clear,300,2012-12-29 20:53:00
3:53 PM,42.1,14.0,32,30.39,10.0,Calm,Calm,-,N/A,,Clear,0,2012-12-29 21:53:00
4:53 PM,41.0,14.0,33,30.39,10.0,Calm,Calm,-,N/A,,Clear,0,2012-12-29 22:53:00
5:53 PM,32.0,15.1,50,30.39,10.0,Calm,Calm,-,N/A,,Clear,0,2012-12-29 23:53:00
7:53 PM,23.0,15.1,72,30.42,10.0,Calm,Calm,-,N/A,,Clear,0,2012-12-30 01:53:00
8:53 PM,21.0,14.0,74,30.42,10.0,Calm,Calm,-,N/A,,Clear,0,2012-12-30 02:53:00
9:53 PM,21.0,14.0,74,30.42,10.0,Calm,Calm,-,N/A,,Clear,0,2012-12-30 03:53:00
10:53 PM,21.0,14.0,74,30.44,10.0,Calm,Calm,-,N/A,,Clear,0,2012-12-30 04:53:00
11:53 PM,21.0,14.0,74,30.45,10.0,Calm,Calm,-,N/A,,Clear,0,2012-12-30 05:53:00